Weather History for KN60 - June, 2014

Change the Weather History Date:

Monday, June 16, 2014

  Actual Average (KMOT) Record (KMOT)
Temperature  
Mean Temperature 61 °F 64 °F  
Max Temperature 77 °F 75 °F 104 °F (1931)
Min Temperature 45 °F 53 °F 24 °F (1915)
Degree Days  
Heating Degree Days 4    
Cooling Degree Days 0 2  
Month to date cooling degree days 3 28  
Year to date cooling degree days 44 44  
Since 1 June cooling degree days 3 28  
Growing Degree Days 12 (Base 50)    
Moisture  
Dew Point 50 °F    
Average Humidity 68    
Maximum Humidity 100    
Minimum Humidity 36    
Precipitation  
Precipitation 0.00 in 0.12 in 1.83 in (1922)
Month to date precipitation 0.85 1.93  
Year to date precipitation 7.50 7.32  
Sea Level Pressure  
Sea Level Pressure 29.71 in    
Wind  
Wind Speed 9 mph (East)    
Max Wind Speed 20 mph    
Max Gust Speed 25 mph    
T = Trace of Precipitation, MM = Missing Value Source: NWS Daily Summary

Daily Weather History Graph

Daily Weather History Graph

Search for Another Location

Airport or City:

Trip Planner

Search our weather history database for the weather conditions in past years. The results will help you decide how hot, cold, wet, or windy it might be!

Date:

Astronomy

Jun. 16, 2014 Rise Set
Actual Time 5:47 AM CDT 9:45 PM CDT
Civil Twilight 5:06 AM CDT 10:26 PM CDT
Nautical Twilight 4:10 AM CDT 11:23 PM CDT
Astronomical Twilight 2:39 AM CDT 12:54 AM CDT
Moon No Moon Rise 10:08 AM CDT (6/16)
Length of Visible Light 17h 20m
Length of Day
15h 58m
Waning Gibbous, 83% of the Moon is Illuminated
Jun 16
Waning Gibbous
Jun 19
Last Quarter
Jun 27
New
Jul 5
First Quarter
Jul 12
Full

Hourly Weather History & Observations

Time (CDT) Temp. Dew Point Humidity Pressure Visibility Wind Dir Wind Speed Gust Speed Precip Events Conditions
12:52 AM 52.0 °F 48.0 °F 86% 29.71 in - West 8.1 mph - N/A   Unknown
1:52 AM 50.0 °F 46.9 °F 89% 29.72 in - West 4.6 mph - N/A   Unknown
2:52 AM 50.0 °F 48.0 °F 93% 29.74 in - WSW 8.1 mph - N/A   Unknown
3:52 AM 50.0 °F 46.9 °F 89% 29.73 in - West 5.8 mph - N/A   Unknown
4:52 AM 50.0 °F 46.9 °F 89% 29.73 in - Calm Calm - N/A   Unknown
5:52 AM 48.0 °F 46.0 °F 93% 29.73 in - Calm Calm - N/A   Unknown
6:52 AM 46.9 °F 46.0 °F 97% 29.74 in - South 3.5 mph - N/A   Unknown
7:52 AM 55.0 °F 52.0 °F 89% 29.73 in - ESE 3.5 mph - N/A   Unknown
8:52 AM 59.0 °F 50.0 °F 72% 29.72 in - SE 4.6 mph - N/A   Unknown
9:52 AM 64.0 °F 51.1 °F 63% 29.71 in - ENE 5.8 mph - N/A   Unknown
10:52 AM 68.0 °F 53.1 °F 59% 29.71 in - ENE 5.8 mph - N/A   Unknown
11:52 AM 71.1 °F 53.1 °F 53% 29.71 in - ESE 10.4 mph - N/A   Unknown
12:52 PM 71.1 °F 50.0 °F 47% 29.70 in - East 11.5 mph - N/A   Unknown
1:52 PM 75.0 °F 48.9 °F 40% 29.70 in - East 16.1 mph - N/A   Unknown
2:52 PM 75.9 °F 48.9 °F 38% 29.68 in - ESE 15.0 mph - N/A   Unknown
3:52 PM 75.9 °F 48.9 °F 38% 29.68 in - East 18.4 mph 25.3 mph N/A   Unknown
4:52 PM 77.0 °F 48.0 °F 36% 29.68 in - ESE 13.8 mph - N/A   Unknown
5:52 PM 73.9 °F 48.0 °F 40% 29.69 in - East 15.0 mph - N/A   Unknown
6:52 PM 72.0 °F 54.0 °F 53% 29.69 in - East 13.8 mph - N/A   Unknown
7:52 PM 72.0 °F 54.0 °F 53% 29.68 in - East 11.5 mph - N/A   Unknown
8:52 PM 69.1 °F 54.0 °F 58% 29.68 in - East 11.5 mph - N/A   Unknown
9:52 PM 68.0 °F 55.0 °F 63% 29.70 in - ENE 10.4 mph - N/A   Unknown
10:52 PM 66.0 °F 55.9 °F 70% 29.73 in - ENE 8.1 mph - N/A   Unknown
11:52 PM 64.9 °F 55.9 °F 73% 29.72 in - ENE 8.1 mph - N/A   Unknown